星链-35798(STARLINK-35798)

导读

STARLINK-35798是美国SpaceX公司星链星座的卫星成员,于2025年10月31日发射。星链项目旨在依托近地轨道卫星群为全球提供高速低延迟宽带服务,尤其覆盖偏远、网络基础设施匮乏区域。截至2025年底,星链星座已部署超7800颗卫星,全球活跃用户超600万。该卫星将进一步扩充星链网络容量,助力其推进千兆卫星互联网的覆盖目标,提升全球卫星互联网服务的稳定性与速率。

基本信息
目录编号:
66292
目录名称:
STARLINK-35798
国际标识:
2025-247AD
轨道中心:
EARTH
卫星名称:
星链-35798
卫星全名:
星链-35798(STARLINK-35798)
卫星状态:
在轨 (已飞行225 天)
发射日期:
2025-10-31 UTC
国别 :
美国 (US)
星等 :
--
轨道信息
数据来源 国际轨道数据
星历时间: 2026-06-12T12:06:55+0800
1天前
查看轨道信息
半长轴: 6840.822km
偏心率: 0.000113
轨道倾角: 53.158°
近地点辐角 95.827°
升交点赤经 110.850°
平近点角 264.286°
近地点: 461.911km
远地点: 463.459km
周期: 93.847分钟
每日圈数: 15.344064
详细信息
固有亮度:
5
最大亮度:
2.5
卫星平台:
Starlink V1.0
覆盖范围:
全球
运营商:
太空探索技术公司
运营商所在国:
美国
制造商(研发单位):
太空探索技术公司
制造商所在国:
美国
使用方式:
暂无
卫星简介
Starlink 计划是 SpaceX 推出的全球卫星互联网项目,通过发射低轨道卫星,为全球尤其是偏远地区提供高速、低延迟的互联网服务。自 2019 年起,Starlink 已部署数千颗卫星,旨在缩小全球数字鸿沟,推动互联网普及。该项目还为军事、航空等行业提供通信支持,带来广泛经济效益。
2D轨道图
3D轨道图
轨道高度分析图
轨道倾角分析图
轨道综合分析图
查看轨道综合分析图